{"data":{"norad_id":48618,"epoch":"2026-05-24T12:47:00.383712Z","epoch_age_seconds":129526,"freshness":"FRESH","line1":"1 48618U 21042A   26144.53264333 -.00000280  00000+0  00000+0 0  9991","line2":"2 48618   5.1333 328.9636 0001490  90.6240 108.0970  1.00271417 18531","mean_motion":1.00271417,"eccentricity":0.000149,"inclination_deg":5.1333,"raan_deg":328.9636,"arg_perigee_deg":90.624,"mean_anomaly_deg":108.097,"bstar":0,"rev_number":1853,"period_min":1436.1021745609,"perigee_km":35780.415564831,"apogee_km":35792.980685699,"semimajor_km":42164.835125265,"source":"CELESTRAK","updated_at":"2026-05-25T13:38:14.099343Z"}}